Meeandah, Australia

3:46 PM AEST on October 19, 2017 (GMT +1000)
Meeandah

Weather History for 94578 - December, 2013

Change the Weather History Date:

Saturday, December 7, 2013

  Actual Average Record
Temperature  
Mean Temperature 68 °F -  
Max Temperature 78 °F 84 °F - ()
Min Temperature 57 °F 68 °F - ()
Cooling Degree Days 2    
Growing Degree Days 18 (Base 50)    
Moisture  
Dew Point 52 °F    
Average Humidity 51    
Maximum Humidity 77    
Minimum Humidity 21    
Precipitation  
Precipitation 0.00 in 0.18 in - ()
Sea Level Pressure  
Sea Level Pressure 30.09 in    
Wind  
Wind Speed 8 mph ()    
Max Wind Speed 15 mph    
Max Gust Speed -    
Visibility 8.8 miles    
Events      
T = Trace of Precipitation, MM = Missing Value Source: Averaged Metar Reports

Daily Weather History Graph

Daily Weather History Graph

Search for Another Location

Airport or City:

Trip Planner

Search our weather history database for the weather conditions in past years. The results will help you decide how hot, cold, wet, or windy it might be!

Date:

Astronomy

Dec. 07, 2013 Rise Set
Actual Time 4:44 AM AEST 6:33 PM AEST
Civil Twilight 4:18 AM AEST 6:59 PM AEST
Nautical Twilight 3:47 AM AEST 7:31 PM AEST
Astronomical Twilight 3:13 AM AEST 8:04 PM AEST
Moon 9:01 AM AEST (12/7) 10:18 PM AEST (12/7)
Length of Visible Light 14h 40m
Length of Day
13h 48m
Waxing Crescent, 22% of the Moon is Illuminated
Dec 7
Waxing Crescent
Dec 10
First Quarter
Dec 17
Full
Dec 25
Last Quarter
Jan 1
New

Hourly Weather History & Observations

Time (AEST) Temp. Dew Point Humidity Pressure Visibility Wind Dir Wind Speed Gust Speed Precip Events Conditions
12:00 AM 68 °F 50 °F 41% 30.09 in 16 mi ESE 6.9 mph - -   Partly Cloudy
12:00 AM 68.0 °F 50.0 °F 52% 30.06 in 6.2 mi ESE 6.9 mph - N/A   Partly Cloudy
12:30 AM 66.2 °F 51.8 °F 60% 30.06 in 6.2 mi ESE 6.9 mph - N/A   Partly Cloudy
1:00 AM 65 °F 52 °F 54% 30.09 in - ESE 5.8 mph - -  
1:00 AM 64.4 °F 51.8 °F 64% 30.06 in 6.2 mi ESE 5.8 mph - N/A   Partly Cloudy
1:30 AM 66.2 °F 51.8 °F 60% 30.06 in 6.2 mi ESE 6.9 mph - N/A   Partly Cloudy
2:00 AM 64.4 °F 53.6 °F 68% 30.06 in - East 5.8 mph - N/A   Clear
2:30 AM 62.6 °F 51.8 °F 68% 30.06 in 6.2 mi South 3.5 mph - N/A   Partly Cloudy
3:00 AM 63 °F 51 °F 57% 30.08 in 16 mi South 5.8 mph - -   Partly Cloudy
3:00 AM 62.6 °F 51.8 °F 68% 30.06 in 6.2 mi South 5.8 mph - N/A   Partly Cloudy
3:30 AM 60.8 °F 51.8 °F 72% 30.06 in 6.2 mi South 5.8 mph - N/A   Partly Cloudy
4:00 AM 60 °F 53 °F 69% 30.09 in - South 5.8 mph - -  
4:00 AM 60.8 °F 51.8 °F 72% 30.06 in 6.2 mi South 5.8 mph - N/A   Partly Cloudy
4:30 AM 59.0 °F 51.8 °F 77% 30.09 in 6.2 mi SSW 5.8 mph - N/A   Partly Cloudy
5:00 AM 59.0 °F 51.8 °F 77% 30.09 in 6.2 mi South 5.8 mph - N/A   Partly Cloudy
5:30 AM 60.8 °F 51.8 °F 72% 30.09 in 6.2 mi SSW 6.9 mph - N/A   Partly Cloudy
6:00 AM 63 °F 53 °F 60% 30.13 in 22 mi SSW 6.9 mph - -   Partly Cloudy
6:00 AM 62.6 °F 53.6 °F 72% 30.12 in 6.2 mi SSW 6.9 mph - N/A   Partly Cloudy
6:30 AM 66.2 °F 51.8 °F 60% 30.12 in 6.2 mi SSW 8.1 mph - N/A   Partly Cloudy
7:00 AM 68 °F 51 °F 45% 30.14 in - SSW 6.9 mph - -  
7:00 AM 68.0 °F 51.8 °F 56% 30.12 in 6.2 mi SSW 6.9 mph - N/A   Partly Cloudy
7:30 AM 71.6 °F 53.6 °F 53% 30.12 in 6.2 mi SSE 5.8 mph - N/A   Partly Cloudy
8:00 AM 73.4 °F 51.8 °F 47% 30.12 in 6.2 mi ESE 8.1 mph - N/A   Partly Cloudy
8:30 AM 73.4 °F 51.8 °F 47% 30.15 in 6.2 mi ESE 6.9 mph - N/A   Partly Cloudy
9:00 AM 74 °F 51 °F 33% 30.16 in 19 mi ENE 6.9 mph - -   Partly Cloudy
9:00 AM 73.4 °F 50.0 °F 44% 30.15 in 6.2 mi ENE 6.9 mph - N/A   Partly Cloudy
9:30 AM 73.4 °F 51.8 °F 47% 30.15 in 6.2 mi SE 4.6 mph - N/A   Partly Cloudy
10:00 AM 75 °F 50 °F 31% 30.16 in - NNE 8.1 mph - -  
10:00 AM 75.2 °F 50.0 °F 41% 30.15 in 6.2 mi NNE 8.1 mph - N/A   Partly Cloudy
10:30 AM 75.2 °F 50.0 °F 41% 30.12 in - NNE 8.1 mph - N/A   Clear
11:00 AM 75.2 °F 48.2 °F 38% 30.12 in - NNE 10.4 mph - N/A   Clear
11:30 AM 75.2 °F 50.0 °F 41% 30.12 in - NNE 9.2 mph - N/A   Clear
12:00 PM 77 °F 50 °F 28% 30.12 in 19 mi NNE 10.4 mph - -   Partly Cloudy
12:00 PM 77.0 °F 50.0 °F 39% 30.12 in - NNE 10.4 mph - N/A   Clear
12:30 PM 77.0 °F 51.8 °F 41% 30.09 in - NNE 11.5 mph - N/A   Clear
1:00 PM 77 °F 45 °F 21% 30.10 in - NE 11.5 mph - -  
1:00 PM 77.0 °F 44.6 °F 32% 30.09 in - NE 11.5 mph - N/A   Clear
1:30 PM 78.8 °F 46.4 °F 32% 30.09 in - NE 12.7 mph - N/A   Clear
2:00 PM 77.0 °F 46.4 °F 34% 30.06 in - NE 13.8 mph - N/A   Clear
2:30 PM 77.0 °F 46.4 °F 34% 30.06 in - NE 12.7 mph - N/A   Clear
3:00 PM 76 °F 49 °F 27% 30.07 in 19 mi ENE 13.8 mph - -   Partly Cloudy
3:00 PM 77.0 °F 48.2 °F 36% 30.06 in - ENE 13.8 mph - N/A   Clear
3:30 PM 77.0 °F 46.4 °F 34% 30.06 in - NE 13.8 mph - N/A   Clear
4:00 PM 76 °F 49 °F 27% 30.06 in - NE 15.0 mph - -  
4:00 PM 75.2 °F 48.2 °F 38% 30.06 in - NE 15.0 mph - N/A   Clear
4:30 PM 75.2 °F 50.0 °F 41% 30.06 in - NE 15.0 mph - N/A   Clear
5:00 PM 75.2 °F 50.0 °F 41% 30.06 in - NE 15.0 mph - N/A   Clear
5:30 PM 73.4 °F 51.8 °F 47% 30.06 in - NE 13.8 mph - N/A   Clear
6:00 PM 72 °F 52 °F 38% 30.09 in 12 mi NE 12.7 mph - -   Haze
6:00 PM 71.6 °F 51.8 °F 50% 30.06 in - NE 12.7 mph - N/A   Clear
6:30 PM 71.6 °F 53.6 °F 53% 30.09 in - NE 10.4 mph - N/A   Clear
7:00 PM 71 °F 55 °F 47% 30.10 in - NE 10.4 mph - -  
7:00 PM 69.8 °F 55.4 °F 60% 30.09 in - NE 10.4 mph - N/A   Clear
7:30 PM 69.8 °F 55.4 °F 60% 30.09 in - NE 10.4 mph - N/A   Clear
8:00 PM 69.8 °F 55.4 °F 60% 30.09 in - NE 9.2 mph - N/A   Clear
8:30 PM 69.8 °F 55.4 °F 60% 30.09 in - NE 10.4 mph - N/A   Clear
9:00 PM 69 °F 56 °F 55% 30.11 in 19 mi NNE 9.2 mph - -   Partly Cloudy
9:00 PM 68.0 °F 57.2 °F 68% 30.09 in - NNE 9.2 mph - N/A   Clear
9:30 PM 69.8 °F 55.4 °F 60% 30.09 in - NE 8.1 mph - N/A   Clear
10:00 PM 68 °F 57 °F 58% 30.12 in - NNE 9.2 mph - -  
10:00 PM 68.0 °F 57.2 °F 68% 30.09 in - NNE 9.2 mph - N/A   Clear
10:30 PM 68.0 °F 57.2 °F 68% 30.09 in - NNE 9.2 mph - N/A   Clear
11:00 PM 66.2 °F 57.2 °F 73% 30.09 in 6.2 mi NNE 10.4 mph - N/A   Partly Cloudy
11:30 PM 66.2 °F 57.2 °F 73% 30.09 in 6.2 mi NNE 8.1 mph - N/A   Partly Cloudy